This is the latest recevied weather packets stored in our database for station/object DC1MAK-13. If no packets are shown the sender has not sent any weather packets the latest 10 day(s).
| Time | Temp. | Humidity | Pressure | Rain* | Wind** | Luminosity | Snow |
|---|---|---|---|---|---|---|---|
| 1787647994 | 16.67° C | 89% | 984 hPa | - | - | - | - |
| 1787647690 | 16.67° C | 91% | 984 hPa | - | - | - | - |
| 1787647087 | 16.11° C | 90% | 983.9 hPa | - | - | - | - |
| 1787646780 | 16.67° C | 90% | 983.9 hPa | - | - | - | - |
| 1787646476 | 16.67° C | 91% | 983.8 hPa | - | - | - | - |
| 1787646173 | 16.67° C | 90% | 983.8 hPa | - | - | - | - |
| 1787645567 | 16.11° C | 88% | 983.6 hPa | - | - | - | - |
| 1787645267 | 16.11° C | 90% | 983.6 hPa | - | - | - | - |
| 1787644959 | 16.11° C | 88% | 983.5 hPa | - | - | - | - |
| 1787644656 | 16.11° C | 88% | 983.4 hPa | - | - | - | - |
| 1787644352 | 15.56° C | 89% | 983.5 hPa | - | - | - | - |
| 1787643747 | 15.56° C | 88% | 983.3 hPa | - | - | - | - |
| 1787643447 | 15.56° C | 85% | 983.3 hPa | - | - | - | - |
| 1787643138 | 15.56° C | 85% | 983.2 hPa | - | - | - | - |
| 1787642835 | 15.56° C | 84% | 983.2 hPa | - | - | - | - |
| 1787642531 | 15.56° C | 83% | 983.1 hPa | - | - | - | - |
| 1787641927 | 15.56° C | 84% | 983 hPa | - | - | - | - |
| 1787641627 | 15° C | 85% | 983 hPa | - | - | - | - |
| 1787641318 | 15° C | 85% | 982.9 hPa | - | - | - | - |
| 1787641014 | 15° C | 85% | 982.9 hPa | - | - | - | - |
| 1787640711 | 15° C | 86% | 982.9 hPa | - | - | - | - |
| 1787640107 | 14.44° C | 85% | 982.7 hPa | - | - | - | - |
| 1787639800 | 14.44° C | 86% | 982.8 hPa | - | - | - | - |
| 1787639497 | 14.44° C | 86% | 982.7 hPa | - | - | - | - |
| 1787639194 | 14.44° C | 88% | 982.6 hPa | - | - | - | - |
* Rain since midnight (hover to see other rain measurements)
** Current wind speed in m/s (hover to see current wind gust speed)